(260954) = 2005 SH32 = 2008 HG31

Discovered at Kitt Peak on 2005-09-23 by Spacewatch.

Orbit

Orbit type: Main Belt

Note: WebGL enabled browser required.

epoch2023-09-13.0
epoch JD2460200.5
perihelion date2019-04-13.19843
perihelion JD2458586.69843
argument of perihelion (°)225.73576
ascending node (°)150.31093
inclination (°)3.90475
eccentricity0.0875273
perihelion distance (AU)2.4957496
Tisserand w.r.t. Jupiter3.3
ΔV w.r.t. Earth (km/sec)10.0
semimajor axis (AU)2.7351500
mean anomaly (°)351.62703
mean daily motion (°/day)0.21788740
aphelion distance (AU)2.975
period (years)4.52
P-vector [x]0.96021341
P-vector [y]0.27168423
P-vector [z]0.06463652
Q-vector [x]-0.27722300
Q-vector [y]0.89934907
Q-vector [z]0.33811042
absolute magnitude17.18
phase slope0.15
uncertainty0
referenceMPO 778863
observations used203
oppositions13
arc length (days)6624
first opposition used2005
last opposition used2023
residual rms (arc-secs)0.79
perturbers coarse indicatorM-v
perturbers precise indicator003Ek
first observation date used2005-09-23.0
last observation date used2023-11-12.0
computer nameMPCLINUX
JD of orbit computation2456966.854895
perihelion JD uncertainty (days)1.1956E-04
argument of perihelion uncertainty (°)9.9251E-05
ascending node uncertainty (°)9.6164E-05
inclination uncertainty (°)6.6259E-06
eccentricity uncertainty 7.3256E-08
perihelion distance uncertainty (AU)1.9851E-07
Minimum Orbit Intersection Distances (in AU)
for orbit epoch: 2460200.5, reference: E2023-VN0
Mercury2.1429
Venus1.77027
Earth1.4976
Mars1.06412
Jupiter2.45372
Saturn6.34223
Uranus15.5001
Neptune27.3331

Observations

208 total observations over interval: 2005 09 23.34938 – 2023 11 12.341813
These data are available for download (format description).

Date (UT) J2000 RA J2000 Dec Magn Location Ref
2005 09 23.34938 01 54 20.67 +06 50 07.9 21.0 V 691 – Steward Observatory, Kitt Peak-Spacewatch MPS 142778
2005 09 23.36698 01 54 20.10 +06 50 02.3 20.9 V 691 – Steward Observatory, Kitt Peak-Spacewatch MPS 142778
2005 09 23.38459 01 54 19.53 +06 49 56.4 20.8 V 691 – Steward Observatory, Kitt Peak-Spacewatch MPS 142778
2005 09 29.35644 01 50 54.81 +06 17 42.0 20.6 V 691 – Steward Observatory, Kitt Peak-Spacewatch MPS 142778
2005 09 29.37385 01 50 54.14 +06 17 35.9 20.4 V 691 – Steward Observatory, Kitt Peak-Spacewatch MPS 142778
2005 09 29.39126 01 50 53.43 +06 17 30.0 20.8 V 691 – Steward Observatory, Kitt Peak-Spacewatch MPS 142778
2005 10 08.34053 01 44 34.26 +05 24 49.4 20.4 V 691 – Steward Observatory, Kitt Peak-Spacewatch MPS 147537
2005 10 08.35789 01 44 33.43 +05 24 43.1 20.5 V 691 – Steward Observatory, Kitt Peak-Spacewatch MPS 147537
2005 10 08.37526 01 44 32.58 +05 24 36.5 20.7 V 691 – Steward Observatory, Kitt Peak-Spacewatch MPS 147537
2005 10 12.30937 01 41 27.28 +05 00 52.7 20.4 V 691 – Steward Observatory, Kitt Peak-Spacewatch MPS 147537
2005 10 12.32675 01 41 26.42 +05 00 46.2 20.3 V 691 – Steward Observatory, Kitt Peak-Spacewatch MPS 147537
2005 10 12.34413 01 41 25.55 +05 00 39.8 20.2 V 691 – Steward Observatory, Kitt Peak-Spacewatch MPS 147537
2008 04 14.31707 14 49 43.75 -10 44 02.0 21.7 V 691 – Steward Observatory, Kitt Peak-Spacewatch MPS 445830
2008 04 14.33468 14 49 43.02 -10 43 57.9 21.6 V 691 – Steward Observatory, Kitt Peak-Spacewatch MPS 445830
2008 04 14.35229 14 49 42.20 -10 43 53.0 21.6 V 691 – Steward Observatory, Kitt Peak-Spacewatch MPS 445830
2008 04 29.30674 14 37 52.24 -09 34 47.4 20.9 V G96 – Mt. Lemmon Survey MPS 248259
2008 04 29.31171 14 37 52.03 -09 34 46.0 20.8 V G96 – Mt. Lemmon Survey MPS 248259
2008 04 29.31667 14 37 51.74 -09 34 44.7 20.8 V G96 – Mt. Lemmon Survey MPS 248259
2008 04 29.32166 14 37 51.49 -09 34 43.1 20.8 V G96 – Mt. Lemmon Survey MPS 248259
2008 04 30.29159 14 37 02.67 -09 30 18.8 21.2 V G96 – Mt. Lemmon Survey MPS 248259
2008 04 30.29973 14 37 02.28 -09 30 17.1 21.2 V G96 – Mt. Lemmon Survey MPS 248259
2008 04 30.30788 14 37 01.84 -09 30 14.5 21.1 V G96 – Mt. Lemmon Survey MPS 248259
2008 04 30.31604 14 37 01.41 -09 30 11.8 20.7 V G96 – Mt. Lemmon Survey MPS 248259
2008 05 02.32601 14 35 20.07 -09 21 11.5 20.9 V G96 – Mt. Lemmon Survey MPS 248144
2008 05 02.32869 14 35 19.93 -09 21 10.1 20.6 V G96 – Mt. Lemmon Survey MPS 248144
2008 05 02.33137 14 35 19.78 -09 21 09.3 20.7 V G96 – Mt. Lemmon Survey MPS 248144
2008 05 02.33405 14 35 19.68 -09 21 09.0 20.8 V G96 – Mt. Lemmon Survey MPS 248144
2008 05 02.39371 14 35 16.55 -09 20 53.5   291 – LPL/Spacewatch II MPS 248144
2008 05 02.39766 14 35 16.35 -09 20 51.6   291 – LPL/Spacewatch II MPS 248144
2008 05 02.40175 14 35 16.15 -09 20 50.4   291 – LPL/Spacewatch II MPS 248144
2008 05 03.36764 14 34 27.52 -09 16 34.9   291 – LPL/Spacewatch II MPS 248974
2008 05 03.37245 14 34 27.26 -09 16 33.7   291 – LPL/Spacewatch II MPS 248974
2008 05 03.37634 14 34 27.07 -09 16 32.7   291 – LPL/Spacewatch II MPS 248974
2009 07 27.24864 21 34 16.44 -12 40 19.8 21.2 V 691 – Steward Observatory, Kitt Peak-Spacewatch MPS 290227
2009 07 27.26635 21 34 15.63 -12 40 24.4 20.9 V 691 – Steward Observatory, Kitt Peak-Spacewatch MPS 290227
2009 07 27.28404 21 34 14.87 -12 40 29.6 21.2 V 691 – Steward Observatory, Kitt Peak-Spacewatch MPS 290227
2009 07 31.27974 21 31 19.83 -13 00 24.7 21.0 V 691 – Steward Observatory, Kitt Peak-Spacewatch MPS 290227
2009 07 31.29745 21 31 19.00 -13 00 30.3 20.6 V 691 – Steward Observatory, Kitt Peak-Spacewatch MPS 290227
2009 07 31.31274 21 31 18.28 -13 00 35.2 21.1 V 691 – Steward Observatory, Kitt Peak-Spacewatch MPS 290227
2009 09 21.16022 20 58 38.17 -16 57 24.5 21.0 V G96 – Mt. Lemmon Survey MPS 295833
2009 09 21.16874 20 58 38.02 -16 57 25.3 20.6 V G96 – Mt. Lemmon Survey MPS 295833
2009 09 21.17721 20 58 37.99 -16 57 26.4 21.1 V G96 – Mt. Lemmon Survey MPS 295833
2009 09 21.18581 20 58 37.88 -16 57 27.5 21.8 V G96 – Mt. Lemmon Survey MPS 295833
2010 12 14.25991 05 28 59.08 +17 27 08.3 20.3 V G96 – Mt. Lemmon Survey MPS 358888
2010 12 14.26509 05 28 58.80 +17 27 08.0 20.2 V G96 – Mt. Lemmon Survey MPS 358888
2010 12 14.27023 05 28 58.47 +17 27 08.1 20.1 V G96 – Mt. Lemmon Survey MPS 358888
2010 12 25.35013 05 18 26.38 +17 28 30.7 21.1 V G96 – Mt. Lemmon Survey MPS 362974
2010 12 25.35702 05 18 26.02 +17 28 31.3 20.5 V G96 – Mt. Lemmon Survey MPS 362974
2010 12 25.36393 05 18 25.59 +17 28 31.4 20.7 V G96 – Mt. Lemmon Survey MPS 362974
2011 01 08.23770 05 07 38.92 +17 38 49.5 20.5 V G96 – Mt. Lemmon Survey MPS 365534
2011 01 08.24471 05 07 38.64 +17 38 49.7 20.5 V G96 – Mt. Lemmon Survey MPS 365534
2011 01 08.25176 05 07 38.35 +17 38 50.1 20.9 V G96 – Mt. Lemmon Survey MPS 365534
2011 01 08.25869 05 07 38.02 +17 38 49.0 21.1 V G96 – Mt. Lemmon Survey MPS 365534
2012 03 13.32315 11 53 39.76 +03 26 04.5 19.7 V G96 – Mt. Lemmon Survey MPS 417109
2012 03 13.33116 11 53 39.37 +03 26 06.0 20.9 V G96 – Mt. Lemmon Survey MPS 417109
2012 03 13.33933 11 53 39.01 +03 26 08.9 21.0 V G96 – Mt. Lemmon Survey MPS 417109
2012 03 13.34747 11 53 38.61 +03 26 11.7 21.0 V G96 – Mt. Lemmon Survey MPS 417109
2012 03 16.21285 11 51 21.70 +03 44 26.2 21.6 V 691 – Steward Observatory, Kitt Peak-Spacewatch MPS 417109
2012 03 16.23054 11 51 20.84 +03 44 33.5 21.3 V 691 – Steward Observatory, Kitt Peak-Spacewatch MPS 417109
2012 03 16.24824 11 51 19.95 +03 44 40.9 21.1 V 691 – Steward Observatory, Kitt Peak-Spacewatch MPS 417109
2012 03 17.30053 11 50 29.25 +03 51 20.3 20.5 V G96 – Mt. Lemmon Survey MPS 418329
2012 03 17.30799 11 50 28.93 +03 51 23.2 20.6 V G96 – Mt. Lemmon Survey MPS 418329
2012 03 17.31549 11 50 28.53 +03 51 25.8 20.8 V G96 – Mt. Lemmon Survey MPS 418329
2012 03 17.32299 11 50 28.17 +03 51 29.1 21.1 V G96 – Mt. Lemmon Survey MPS 418329
2012 03 21.28466 11 47 17.98 +04 16 16.2 21.7 V G96 – Mt. Lemmon Survey MPS 418329
2012 03 21.28992 11 47 17.70 +04 16 18.1 21.2 V G96 – Mt. Lemmon Survey MPS 418329
2012 03 21.29516 11 47 17.44 +04 16 19.9 20.9 V G96 – Mt. Lemmon Survey MPS 418329
2012 03 21.30042 11 47 17.23 +04 16 21.5 21.0 V G96 – Mt. Lemmon Survey MPS 418329
2012 03 23.24580 11 45 44.74 +04 28 15.0 21.5 V G96 – Mt. Lemmon Survey MPS 418329
2012 03 23.25273 11 45 44.38 +04 28 17.8 21.2 V G96 – Mt. Lemmon Survey MPS 418329
2012 03 23.25971 11 45 44.10 +04 28 20.1 20.9 V G96 – Mt. Lemmon Survey MPS 418329
2012 03 23.26674 11 45 43.70 +04 28 22.8 20.8 V G96 – Mt. Lemmon Survey MPS 418329
2012 03 27.32999 11 42 34.617 +04 52 23.85 21.5 w F51 – Pan-STARRS 1, Haleakala MPS 420127
2012 03 27.34443 11 42 33.946 +04 52 28.72 21.5 w F51 – Pan-STARRS 1, Haleakala MPS 420127
2012 03 27.37334 11 42 32.587 +04 52 38.74 21.5 w F51 – Pan-STARRS 1, Haleakala MPS 420127
2012 04 20.19895 11 28 18.40 +06 35 44.1 22.2 V G96 – Mt. Lemmon Survey MPS 421747
2012 04 20.20595 11 28 18.26 +06 35 45.2 21.6 V G96 – Mt. Lemmon Survey MPS 421747
2012 04 20.21294 11 28 18.04 +06 35 47.3 22.4 V G96 – Mt. Lemmon Survey MPS 421747
2012 04 20.21992 11 28 17.90 +06 35 48.0 22.0 V G96 – Mt. Lemmon Survey MPS 421747
2014 09 23.46126 01 29 29.795 +04 41 59.81 20.7 w F51 – Pan-STARRS 1, Haleakala MPS 536059
2014 09 23.47364 01 29 29.323 +04 41 55.36 20.7 w F51 – Pan-STARRS 1, Haleakala MPS 536059
2014 09 23.48605 01 29 28.843 +04 41 51.12 20.8 w F51 – Pan-STARRS 1, Haleakala MPS 536059
2014 09 23.49851 01 29 28.344 +04 41 46.85 21.0 w F51 – Pan-STARRS 1, Haleakala MPS 536059
2014 10 01.35247 01 24 08.77 +03 54 16.0 20.7 V 703 – Catalina Sky Survey MPS 538523
2014 10 01.36002 01 24 08.37 +03 54 13.0 20.8 V 703 – Catalina Sky Survey MPS 538523
2014 10 01.37746 01 24 07.61 +03 54 05.5 21.1 V 703 – Catalina Sky Survey MPS 538523
2014 10 13.30920 01 14 47.30 +02 39 39.9 20.5 V 703 – Catalina Sky Survey MPS 540212
2014 10 13.31877 01 14 46.78 +02 39 36.5 20.5 V 703 – Catalina Sky Survey MPS 540212
2014 10 13.32831 01 14 46.34 +02 39 33.3 19.7 V 703 – Catalina Sky Survey MPS 540212
2014 10 13.33786 01 14 45.95 +02 39 29.3 20.4 V 703 – Catalina Sky Survey MPS 540212
2016 01 30.23651 08 51 44.82 +15 29 24.2 20.7 V G96 – Mt. Lemmon Survey MPS 678346
